Location: Buckland
(65.9785°N, 161.1281°W)
Time: 18:50:04
(UTC+00:00)

Transit 2A Rocket - Pass Details

Date: 05 December 2020
Orbit: 592 x 910 km, 66.7° (Epoch: 22 January)

Event Time Altitude Azimuth Distance (km) Brightness Sun altitude
Exits shadow 12:50:45 13° 68° (ENE) 2,064 7.7 -41.4°
Drops below altitude 10° 12:51:18 10° 67° (ENE) 2,265 8.0 -41.4°
Sets 12:53:37 0° 62° (ENE) 3,139 9.0 -41.2°
